Location: ???????
(55.7027°N, 37.3832°E)
Time: 10:47:00
(UTC+00:00)

GP-B - Pass Details

Date: 14 April 2026
Orbit: 617 x 621 km, 89.9° (Epoch: 19 May)

Event Time Altitude Azimuth Distance (km) Brightness Sun altitude
Rises 23:14:44 0° 1° (N) 2,913 7.6 -21.1°
Reaches altitude 10° 23:16:57 10° 1° (N) 2,002 6.6 -21.0°
Maximum altitude 23:21:21 88° 88° (E) 628 3.0 -20.7°
Enters shadow 23:22:26 51° 180° (S) 782 3.2 -20.6°
